Weather History for Litchfield, MN

Change the Weather History Date:

Thursday, May 16, 2013

  Actual Average Record
Temperature  
Mean Temperature 68 °F -  
Max Temperature 82 °F 73 °F 92 °F (1987)
Min Temperature 53 °F 48 °F 32 °F (1956)
Cooling Degree Days 2    
Growing Degree Days 18 (Base 50)    
Moisture  
Dew Point 41 °F    
Average Humidity 37    
Maximum Humidity 72    
Minimum Humidity 21    
Precipitation  
Precipitation 0.00 in - - ()
Sea Level Pressure  
Sea Level Pressure 29.89 in    
Wind  
Wind Speed 8 mph (ENE)    
Max Wind Speed 18 mph    
Max Gust Speed 28 mph    
Visibility 10 miles    
Events Rain    
Averages and records for this station are not official NWS values.
T = Trace of Precipitation, MM = Missing Value Source: NWS Daily Summary

Daily Weather History Graph

Daily Weather History Graph

Search for Another Location

Airport:

Trip Planner

Search our weather history database for the weather conditions in past years. The results will help you decide how hot, cold, wet, or windy it might be!

Date:

Astronomy

May. 16, 2013 Rise Set
Actual Time 5:47 AM CDT 8:42 PM CDT
Civil Twilight 5:12 AM CDT 9:16 PM CDT
Nautical Twilight 4:28 AM CDT 10:00 PM CDT
Astronomical Twilight 3:37 AM CDT 10:53 PM CDT
Moon 11:26 AM CDT (5/16) 12:59 AM CDT (5/16)
Length of Visible Light 16h 03m
Length of Day
14h 54m
Waxing Crescent, 36% of the Moon is Illuminated
May 16
Waxing Crescent
May 17
First Quarter
May 24
Full
May 31
Last Quarter
Jun 8
New

Hourly Weather History & Observations

Time (CDT) Temp. Dew Point Humidity Pressure Visibility Wind Dir Wind Speed Gust Speed Precip Events Conditions
12:12 AM 64.4 °F 46.4 °F 52% 29.86 in 10.0 mi WSW 5.8 mph - N/A   Unknown
12:33 AM 64.4 °F 46.4 °F 52% 29.86 in 10.0 mi WSW 5.8 mph - N/A   Clear
12:52 AM 62.6 °F 46.4 °F 55% 29.86 in 10.0 mi WSW 6.9 mph - N/A   Scattered Clouds
1:13 AM 62.6 °F 46.4 °F 55% 29.86 in 10.0 mi WSW 5.8 mph - N/A   Clear
1:33 AM 62.6 °F 46.4 °F 55% 29.86 in 10.0 mi WSW 5.8 mph - N/A   Scattered Clouds
1:52 AM 62.6 °F 46.4 °F 55% 29.86 in 10.0 mi WSW 5.8 mph - N/A   Scattered Clouds
2:13 AM 62.6 °F 46.4 °F 55% 29.86 in 10.0 mi West 3.5 mph - N/A   Clear
2:33 AM 62.6 °F 46.4 °F 55% 29.86 in 10.0 mi West 4.6 mph - N/A   Clear
2:52 AM 60.8 °F 46.4 °F 59% 29.87 in 10.0 mi West 4.6 mph - N/A   Scattered Clouds
3:13 AM 60.8 °F 46.4 °F 59% 29.86 in 10.0 mi WSW 4.6 mph - N/A   Clear
3:33 AM 60.8 °F 46.4 °F 59% 29.87 in 10.0 mi West 4.6 mph - N/A   Scattered Clouds
3:52 AM 57.2 °F 46.4 °F 67% 29.87 in 10.0 mi Calm Calm - N/A   Scattered Clouds
4:13 AM 57.2 °F 44.6 °F 63% 29.87 in 10.0 mi West 4.6 mph - N/A   Scattered Clouds
4:33 AM 57.2 °F 44.6 °F 63% 29.88 in 10.0 mi WNW 3.5 mph - N/A   Scattered Clouds
4:52 AM 57.2 °F 44.6 °F 63% 29.88 in 10.0 mi WNW 4.6 mph - N/A   Unknown
5:13 AM 55.4 °F 44.6 °F 67% 29.89 in 10.0 mi WNW 3.5 mph - N/A   Scattered Clouds
5:32 AM 55.4 °F 44.6 °F 67% 29.89 in 10.0 mi NW 3.5 mph - N/A   Unknown
5:53 AM 53.6 °F 44.6 °F 72% 29.89 in 10.0 mi NW 3.5 mph - N/A   Clear
6:13 AM 53.6 °F 42.8 °F 67% 29.90 in 10.0 mi Calm Calm - N/A   Clear
6:32 AM 55.4 °F 44.6 °F 67% 29.90 in 10.0 mi NNW 4.6 mph - N/A   Clear
6:53 AM 57.2 °F 44.6 °F 63% 29.91 in 10.0 mi NNW 3.5 mph - N/A   Clear
7:13 AM 59.0 °F 44.6 °F 59% 29.91 in 10.0 mi North 3.5 mph - N/A   Clear
7:32 AM 59.0 °F 44.6 °F 59% 29.91 in 10.0 mi NNE 3.5 mph - N/A   Unknown
7:53 AM 62.6 °F 42.8 °F 48% 29.92 in 10.0 mi NNE 3.5 mph - N/A   Unknown
8:13 AM 62.6 °F 42.8 °F 48% 29.93 in 10.0 mi NE 4.6 mph - N/A   Clear
8:32 AM 64.4 °F 42.8 °F 45% 29.93 in 10.0 mi NE 4.6 mph - N/A   Clear
8:53 AM 66.2 °F 42.8 °F 43% 29.92 in 10.0 mi NE 4.6 mph - N/A   Clear
9:13 AM 69.8 °F 39.2 °F 33% 29.93 in 10.0 mi East 8.1 mph - N/A   Clear
9:32 AM 73.4 °F 41.0 °F 31% 29.93 in 10.0 mi East 12.7 mph 16.1 mph N/A   Clear
9:53 AM 73.4 °F 39.2 °F 29% 29.93 in 10.0 mi East 15.0 mph - N/A   Clear
10:12 AM 75.2 °F 39.2 °F 27% 29.93 in 10.0 mi East 12.7 mph 17.3 mph N/A   Clear
10:33 AM 75.2 °F 39.2 °F 27% 29.92 in 10.0 mi East 13.8 mph - N/A   Clear
10:53 AM 77.0 °F 41.0 °F 28% 29.92 in 10.0 mi East 11.5 mph - N/A   Clear
11:12 AM 78.8 °F 39.2 °F 24% 29.91 in 10.0 mi East 12.7 mph - N/A   Clear
11:33 AM 78.8 °F 41.0 °F 26% 29.91 in 10.0 mi East 12.7 mph 17.3 mph N/A   Clear
11:53 AM 78.8 °F 39.2 °F 24% 29.90 in 10.0 mi East 15.0 mph 18.4 mph N/A   Clear
12:12 PM 78.8 °F 39.2 °F 24% 29.90 in 10.0 mi East 12.7 mph 17.3 mph N/A   Clear
12:33 PM 78.8 °F 37.4 °F 23% 29.90 in 10.0 mi East 12.7 mph 18.4 mph N/A   Clear
12:53 PM 80.6 °F 39.2 °F 23% 29.90 in 10.0 mi East 10.4 mph 16.1 mph N/A   Clear
1:12 PM 80.6 °F 41.0 °F 24% 29.90 in 10.0 mi ESE 10.4 mph 18.4 mph N/A   Clear
1:32 PM 82.4 °F 41.0 °F 23% 29.89 in 10.0 mi East 11.5 mph 17.3 mph N/A   Clear
1:52 PM 80.6 °F 37.4 °F 21% 29.89 in 10.0 mi East 12.7 mph 17.3 mph N/A   Clear
2:13 PM 80.6 °F 39.2 °F 23% 29.89 in 10.0 mi SE 6.9 mph - N/A   Clear
2:33 PM 82.4 °F 39.2 °F 21% 29.88 in 10.0 mi East 10.4 mph 18.4 mph N/A   Clear
2:53 PM 82.4 °F 39.2 °F 21% 29.88 in 10.0 mi East 10.4 mph 18.4 mph N/A   Clear
3:13 PM 82.4 °F 39.2 °F 21% 29.87 in 10.0 mi ESE 12.7 mph 20.7 mph N/A   Clear
3:32 PM 82.4 °F 39.2 °F 21% 29.89 in 10.0 mi ESE 8.1 mph - N/A   Clear
3:53 PM 82.4 °F 39.2 °F 21% 29.88 in 10.0 mi ESE 6.9 mph - N/A   Clear
4:13 PM 82.4 °F 39.2 °F 21% 29.88 in 10.0 mi East 10.4 mph - N/A   Clear
4:32 PM 82.4 °F 39.2 °F 21% 29.88 in 10.0 mi East 10.4 mph - N/A   Clear
5:13 PM 80.6 °F 39.2 °F 23% 29.86 in 10.0 mi East 9.2 mph - N/A   Clear
5:32 PM 78.8 °F 39.2 °F 24% 29.86 in 10.0 mi East 9.2 mph 16.1 mph N/A   Clear
5:53 PM 78.8 °F 37.4 °F 23% 29.86 in 10.0 mi East 10.4 mph - N/A   Clear
6:12 PM 78.8 °F 39.2 °F 24% 29.85 in 10.0 mi East 11.5 mph - N/A   Clear
6:33 PM 78.8 °F 39.2 °F 24% 29.85 in 10.0 mi East 9.2 mph - N/A   Clear
6:53 PM 78.8 °F 39.2 °F 24% 29.85 in 10.0 mi East 10.4 mph - N/A   Clear
7:12 PM 78.8 °F 37.4 °F 23% 29.85 in 10.0 mi East 10.4 mph - N/A   Clear
7:33 PM 77.0 °F 37.4 °F 24% 29.86 in 10.0 mi East 10.4 mph 16.1 mph N/A   Clear
7:53 PM 75.2 °F 37.4 °F 25% 29.86 in 10.0 mi East 11.5 mph - N/A   Clear
8:12 PM 75.2 °F 37.4 °F 25% 29.86 in 10.0 mi East 11.5 mph - N/A   Scattered Clouds
8:33 PM 75.2 °F 39.2 °F 27% 29.86 in 10.0 mi East 10.4 mph - N/A   Mostly Cloudy
8:53 PM 75.2 °F 37.4 °F 25% 29.87 in 10.0 mi East 18.4 mph 24.2 mph N/A   Overcast
9:12 PM 73.4 °F 37.4 °F 27% 29.87 in 10.0 mi East 13.8 mph 19.6 mph N/A Rain Light Rain
9:33 PM 73.4 °F 35.6 °F 25% 29.87 in 10.0 mi ENE 15.0 mph 20.7 mph N/A   Scattered Clouds
9:53 PM 73.4 °F 35.6 °F 25% 29.88 in 10.0 mi ENE 12.7 mph 19.6 mph N/A   Mostly Cloudy
10:12 PM 71.6 °F 35.6 °F 27% 29.89 in 10.0 mi East 15.0 mph 21.9 mph N/A   Overcast
10:33 PM 71.6 °F 33.8 °F 25% 29.88 in 10.0 mi East 18.4 mph 27.6 mph N/A   Overcast
10:53 PM 71.6 °F 33.8 °F 25% 29.90 in 10.0 mi East 15.0 mph 21.9 mph N/A   Overcast
11:12 PM 69.8 °F 33.8 °F 27% 29.90 in 10.0 mi East 12.7 mph - N/A   Light Drizzle
11:33 PM 69.8 °F 32.0 °F 25% 29.90 in 10.0 mi East 18.4 mph 24.2 mph N/A   Scattered Clouds
11:53 PM 69.8 °F 32.0 °F 25% 29.90 in 10.0 mi East 16.1 mph - N/A   Mostly Cloudy